Location: New Canada
(47.1017°N, 68.5042°W)
Time: 08:35:55
(UTC+00:00)

EO-79 - Pass Details

Date: 06 April 2023
Orbit: 578 x 593 km, 98.0° (Epoch: 03 June)

Event Time Altitude Azimuth Distance (km) Brightness Sun altitude
Rises 08:03:52 0° 359° (N) 2,825 ? -19.7°
Reaches altitude 10° 08:06:34 10° 341° (NNW) 1,916 ? -19.3°
Enters shadow 08:09:10 18° 302° (WNW) 1,458 ? -18.9°
